Stuttgart, AR

8:28 AM CDT on May 30, 2017 (GMT -0500)
Stuttgart Municipal

Weather History for KSGT - December, 2011

Change the Weather History Date:

Tuesday, December 27, 2011

  Actual Average Record
Temperature  
Mean Temperature 45 °F -  
Max Temperature 53 °F 47 °F 73 °F (2008)
Min Temperature 37 °F 32 °F 21 °F (2010)
Degree Days  
Heating Degree Days 20    
Moisture  
Dew Point 36 °F    
Average Humidity 72    
Maximum Humidity 87    
Minimum Humidity 50    
Precipitation  
Precipitation 0.19 in - - ()
Sea Level Pressure  
Sea Level Pressure 29.99 in    
Wind  
Wind Speed - (North)    
Max Wind Speed -    
Max Gust Speed -    
Visibility 10 miles    
Events      
Averages and records for this station are not official NWS values.
T = Trace of Precipitation, MM = Missing Value Source: NWS Daily Summary

Daily Weather History Graph

Daily Weather History Graph

Search for Another Location

Airport or City:

Trip Planner

Search our weather history database for the weather conditions in past years. The results will help you decide how hot, cold, wet, or windy it might be!

Date:

Astronomy

Dec. 27, 2011 Rise Set
Actual Time 7:11 AM CST 5:02 PM CST
Civil Twilight 6:43 AM CST 5:30 PM CST
Nautical Twilight 6:12 AM CST 6:02 PM CST
Astronomical Twilight 5:41 AM CST 6:33 PM CST
Moon 9:14 AM CST (12/27) 8:28 PM CST (12/27)
Length of Visible Light 10h 47m
Length of Day
9h 51m
Waxing Crescent, 11% of the Moon is Illuminated
Dec 27
Waxing Crescent
Jan 1
First Quarter
Jan 9
Full
Jan 16
Last Quarter
Jan 23
New

Hourly Weather History & Observations

Time (CST) Temp. Dew Point Humidity Pressure Visibility Wind Dir Wind Speed Gust Speed Precip Events Conditions
12:15 AM 41.0 °F 37.4 °F 87% 29.87 in 10.0 mi North - - N/A   Overcast
12:35 AM 41.0 °F 37.4 °F 87% 29.87 in 10.0 mi North - - N/A   Overcast
12:55 AM 41.0 °F 37.4 °F 87% 29.87 in 10.0 mi North - - N/A   Overcast
1:15 AM 41.0 °F 35.6 °F 81% 29.87 in 10.0 mi North - - 0.04 in   Overcast
1:35 AM 41.0 °F 35.6 °F 81% 29.88 in 10.0 mi North - - 0.06 in   Overcast
1:55 AM 41.0 °F 35.6 °F 81% 29.88 in 10.0 mi North - - 0.07 in   Overcast
2:15 AM 39.2 °F 33.8 °F 81% 29.89 in 10.0 mi North - - 0.04 in   Overcast
2:35 AM 37.4 °F 32.0 °F 81% 29.90 in 10.0 mi North - - 0.06 in   Overcast
2:55 AM 39.2 °F 33.8 °F 81% 29.90 in 10.0 mi North - - 0.09 in   Mostly Cloudy
3:15 AM 39.2 °F 33.8 °F 81% 29.90 in 10.0 mi North - - 0.02 in   Mostly Cloudy
3:35 AM 39.2 °F 35.6 °F 87% 29.90 in 10.0 mi North - - 0.03 in   Overcast
3:55 AM 39.2 °F 35.6 °F 87% 29.90 in 10.0 mi North - - 0.03 in   Overcast
4:15 AM 41.0 °F 35.6 °F 81% 29.90 in 10.0 mi North - - N/A   Overcast
4:35 AM 41.0 °F 35.6 °F 81% 29.90 in 10.0 mi North - - N/A   Overcast
4:55 AM 41.0 °F 35.6 °F 81% 29.90 in 10.0 mi North - - N/A   Overcast
5:15 AM 42.8 °F 35.6 °F 76% 29.91 in 10.0 mi North - - N/A   Mostly Cloudy
5:35 AM 42.8 °F 37.4 °F 81% 29.92 in 10.0 mi North - - N/A   Overcast
5:55 AM 42.8 °F 37.4 °F 81% 29.92 in 10.0 mi North - - N/A   Overcast
6:35 AM 42.8 °F 37.4 °F 81% 29.93 in 10.0 mi North - - N/A   Mostly Cloudy
6:55 AM 42.8 °F 37.4 °F 81% 29.94 in 10.0 mi North - - N/A   Mostly Cloudy
7:15 AM 42.8 °F 37.4 °F 81% 29.94 in 10.0 mi North - - N/A   Scattered Clouds
7:35 AM 42.8 °F 37.4 °F 81% 29.96 in 10.0 mi North - - N/A   Clear
8:15 AM 44.6 °F 37.4 °F 76% 29.97 in 10.0 mi North - - N/A   Clear
8:35 AM 44.6 °F 39.2 °F 81% 29.98 in 10.0 mi North - - N/A   Clear
8:55 AM 46.4 °F 39.2 °F 76% 29.98 in 10.0 mi North - - N/A   Clear
9:15 AM 46.4 °F 39.2 °F 76% 29.99 in 10.0 mi North - - N/A   Clear
9:35 AM 46.4 °F 39.2 °F 76% 30.00 in 10.0 mi North - - N/A   Clear
9:55 AM 48.2 °F 39.2 °F 71% 30.01 in 10.0 mi North - - N/A   Clear
10:15 AM 48.2 °F 39.2 °F 71% 30.02 in 10.0 mi North - - N/A   Clear
10:55 AM 50.0 °F 37.4 °F 62% 30.03 in 10.0 mi North - - N/A   Clear
11:15 AM 50.0 °F 37.4 °F 62% 30.03 in 10.0 mi North - - N/A   Clear
11:35 AM 51.8 °F 37.4 °F 58% 30.02 in 10.0 mi North - - N/A   Clear
11:55 AM 51.8 °F 37.4 °F 58% 30.02 in 10.0 mi North - - N/A   Clear
12:15 PM 51.8 °F 37.4 °F 58% 30.01 in 10.0 mi North - - N/A   Clear
12:35 PM 53.6 °F 37.4 °F 54% 30.00 in 10.0 mi North - - N/A   Clear
12:55 PM 53.6 °F 35.6 °F 51% 30.00 in 10.0 mi North - - N/A   Clear
1:35 PM 53.6 °F 37.4 °F 54% 30.00 in 10.0 mi North - - N/A   Clear
1:55 PM 53.6 °F - N/A% 30.00 in 10.0 mi North - - N/A   Clear
2:15 PM 53.6 °F 35.6 °F 51% 30.01 in 10.0 mi North - - N/A   Clear
2:35 PM 53.6 °F - N/A% 30.02 in 10.0 mi North - - N/A   Clear
2:55 PM 53.6 °F - N/A% 30.03 in 10.0 mi North - - N/A   Clear
3:15 PM 53.6 °F - N/A% 30.04 in 10.0 mi North - - N/A   Clear
3:35 PM 53.6 °F - N/A% 30.05 in 10.0 mi North - - N/A   Clear
3:55 PM 53.6 °F - N/A% 30.06 in 10.0 mi North - - N/A   Clear
4:15 PM 53.6 °F - N/A% 30.07 in 10.0 mi North - - N/A   Clear
4:35 PM 51.8 °F - N/A% 30.07 in 10.0 mi North - - N/A   Clear
4:55 PM 51.8 °F - N/A% 30.08 in 10.0 mi North - - N/A   Clear
5:15 PM 50.0 °F 32.0 °F 50% 30.08 in 10.0 mi North - - N/A   Clear
5:55 PM 48.2 °F 32.0 °F 54% 30.08 in 10.0 mi North - - N/A   Clear
6:15 PM 46.4 °F 32.0 °F 57% 30.08 in 10.0 mi North - - N/A   Clear
6:55 PM 44.6 °F 33.8 °F 66% 30.09 in 10.0 mi North - - N/A   Clear
7:15 PM 44.6 °F 32.0 °F 61% 30.10 in 10.0 mi North - - N/A   Clear
7:35 PM 42.8 °F 33.8 °F 70% 30.11 in 10.0 mi North - - N/A   Clear
7:55 PM 42.8 °F 32.0 °F 66% 30.12 in 10.0 mi North - - N/A   Clear
8:15 PM 42.8 °F 32.0 °F 66% 30.13 in 10.0 mi North - - N/A   Clear
8:35 PM 44.6 °F 30.2 °F 57% 30.13 in 10.0 mi North - - N/A   Clear
9:15 PM 42.8 °F 30.2 °F 61% 30.14 in 10.0 mi North - - N/A   Clear
9:35 PM 42.8 °F 30.2 °F 61% 30.15 in 10.0 mi North - - N/A   Clear
9:55 PM 41.0 °F 30.2 °F 65% 30.15 in 10.0 mi North - - N/A   Clear
10:15 PM 39.2 °F 30.2 °F 70% 30.16 in 6.0 mi North - - N/A   Clear
10:35 PM 41.0 °F 30.2 °F 65% 30.16 in 10.0 mi North - - N/A   Clear
10:55 PM 39.2 °F 30.2 °F 70% 30.17 in 10.0 mi North - - N/A   Clear
11:15 PM 39.2 °F 30.2 °F 70% 30.17 in 10.0 mi North - - N/A   Clear
11:35 PM 39.2 °F 30.2 °F 70% 30.15 in 10.0 mi North - - N/A   Clear